Torna al catalogo

ERS 26

OV5-6

LostScienzaHEO
NORAD 3951·PAYLOAD·🇺🇸 United States

Lanciato May 23, 1969 da Cape Canaveral Space Force Station

Loading…

Prossimi Passaggi (prossime 24 ore)

TLE

ObsoletoSource: Space-Track

Epoca: Apr 30, 1971, 04:22 UTC

1 03951U 69046B   71120.18240740 -.00000433  00000-0  10000-3 0  9995
2 03951  32.9470 146.6540 6908899 208.7530 240.4898  0.46230172  3345

Traccia ERS 26 in tempo reale con AllMySat

Download on the App Store